Penn Yan, NY

12:05 PM EST on February 10, 2016 (GMT -0500)
Penn Yan

Weather History for KPEO - December, 2012

Change the Weather History Date:

Friday, December 7, 2012

  Actual Average (KITH) Record (KITH)
Temperature  
Mean Temperature 36 °F -  
Max Temperature 37 °F 40 °F 64 °F (1998)
Min Temperature 34 °F 24 °F -2 °F (1969)
Degree Days  
Heating Degree Days 30    
Moisture  
Dew Point 32 °F    
Average Humidity 83    
Maximum Humidity 93    
Minimum Humidity 54    
Precipitation  
Precipitation 0.19 in - - ()
Sea Level Pressure  
Sea Level Pressure 30.00 in    
Wind  
Wind Speed 9 mph (South)    
Max Wind Speed 16 mph    
Max Gust Speed 21 mph    
Visibility 7 miles    
Events Rain    
Averages and records for this station are not official NWS values.
T = Trace of Precipitation, MM = Missing Value Source: NWS Daily Summary

Daily Weather History Graph

Daily Weather History Graph

Search for Another Location

Airport or City:

Trip Planner

Search our weather history database for the weather conditions in past years. The results will help you decide how hot, cold, wet, or windy it might be!

Date:

Astronomy

Dec. 07, 2012 Rise Set
Actual Time 7:25 AM EST 4:34 PM EST
Civil Twilight 6:53 AM EST 5:06 PM EST
Nautical Twilight 6:17 AM EST 5:41 PM EST
Astronomical Twilight 5:43 AM EST 6:16 PM EST
Moon 12:34 AM EST (12/7) 12:37 PM EST (12/7)
Length of Visible Light 10h 13m
Length of Day
9h 09m
Last Quarter, 39% of the Moon is Illuminated
Dec 7
Last Quarter
Dec 13
New
Dec 20
First Quarter
Dec 28
Full
Jan 4
Last Quarter

Hourly Weather History & Observations

Time (EST) Temp. Windchill Dew Point Humidity Pressure Visibility Wind Dir Wind Speed Gust Speed Precip Events Conditions
12:53 AM 35.1 °F 25.2 °F 19.9 °F 54% 30.07 in 10.0 mi South 16.1 mph - N/A   Clear
1:53 AM 35.1 °F 25.5 °F 21.0 °F 57% 30.08 in 10.0 mi SSW 15.0 mph 19.6 mph N/A   Clear
2:53 AM 34.0 °F 26.0 °F 21.0 °F 59% 30.07 in 10.0 mi South 10.4 mph 17.3 mph N/A   Clear
3:53 AM 35.1 °F 27.4 °F 21.9 °F 59% 30.06 in 10.0 mi South 10.4 mph - N/A   Clear
4:53 AM 35.1 °F 30.1 °F 23.0 °F 61% 30.06 in 10.0 mi South 5.8 mph - N/A   Clear
5:53 AM 35.1 °F 27.9 °F 23.0 °F 61% 30.05 in 10.0 mi South 9.2 mph - N/A   Scattered Clouds
6:53 AM 36.0 °F 28.5 °F 24.1 °F 62% 30.06 in 10.0 mi South 10.4 mph 20.7 mph N/A   Mostly Cloudy
7:53 AM 36.0 °F 28.5 °F 24.1 °F 62% 30.04 in 10.0 mi South 10.4 mph 18.4 mph N/A   Partly Cloudy
8:53 AM 37.0 °F 30.4 °F 25.0 °F 62% 30.04 in 10.0 mi South 9.2 mph - N/A   Overcast
9:53 AM 36.0 °F 28.0 °F 30.0 °F 79% 30.04 in 5.0 mi South 11.5 mph 19.6 mph 0.00 in Rain Light Rain
10:53 AM 36.0 °F 29.6 °F 32.0 °F 86% 30.03 in 6.0 mi SSW 8.1 mph - 0.01 in Rain Light Rain
11:06 AM 35.6 °F 28.6 °F 32.0 °F 87% 29.99 in 7.0 mi South 9.2 mph - 0.00 in Rain Light Rain
11:29 AM 37.4 °F 32.8 °F 32.0 °F 81% 29.99 in 9.0 mi South 5.8 mph - 0.00 in   Overcast
11:53 AM 37.0 °F 34.5 °F 33.1 °F 86% 30.01 in 4.0 mi SSW 3.5 mph - 0.01 in Rain Light Rain
12:11 PM 37.4 °F 33.8 °F 33.8 °F 87% 29.98 in 2.5 mi South 4.6 mph - 0.02 in Rain Rain
12:22 PM 37.4 °F 33.8 °F 33.8 °F 87% 29.98 in 3.0 mi South 4.6 mph - 0.03 in Rain Rain
12:41 PM 37.4 °F 33.8 °F 33.8 °F 87% 29.98 in 3.0 mi South 4.6 mph - 0.05 in Rain Light Rain
12:53 PM 37.0 °F 33.3 °F 34.0 °F 89% 30.01 in 4.0 mi South 4.6 mph - 0.06 in Rain Light Rain
1:09 PM 37.4 °F 34.9 °F 33.8 °F 87% 29.98 in 2.5 mi South 3.5 mph - 0.01 in Rain Rain
1:29 PM 37.4 °F - 33.8 °F 87% 29.98 in 2.0 mi Calm Calm - 0.04 in Rain Rain
1:38 PM 37.4 °F 31.4 °F 33.8 °F 87% 29.97 in 2.5 mi South 8.1 mph - 0.06 in Rain Rain
1:43 PM 37.4 °F 32.8 °F 33.8 °F 87% 29.97 in 3.0 mi South 5.8 mph - 0.06 in Rain Light Rain
1:53 PM 37.0 °F 31.6 °F 34.0 °F 89% 30.00 in 3.0 mi South 6.9 mph - 0.07 in Rain Rain
2:02 PM 37.4 °F 31.4 °F 35.6 °F 93% 29.97 in 2.5 mi South 8.1 mph - 0.02 in Rain Rain
2:14 PM 37.4 °F 32.8 °F 33.8 °F 87% 29.97 in 3.0 mi South 5.8 mph - 0.03 in Rain Light Rain
2:53 PM 37.9 °F 35.5 °F 35.1 °F 89% 30.00 in 4.0 mi South 3.5 mph - 0.04 in Rain Light Rain
3:53 PM 37.9 °F 35.5 °F 35.1 °F 89% 30.00 in 6.0 mi South 3.5 mph - 0.00 in   Overcast
4:53 PM 37.9 °F 33.5 °F 35.1 °F 89% 30.00 in 10.0 mi SSW 5.8 mph - N/A   Overcast
5:11 PM 37.4 °F 33.8 °F 35.6 °F 93% 29.98 in 10.0 mi South 4.6 mph - N/A   Overcast
5:27 PM 37.4 °F 33.8 °F 35.6 °F 93% 29.97 in 10.0 mi South 4.6 mph - N/A   Overcast
5:53 PM 37.9 °F 32.7 °F 35.1 °F 89% 30.00 in 10.0 mi South 6.9 mph - N/A   Mostly Cloudy
6:53 PM 37.9 °F 33.5 °F 35.1 °F 89% 30.00 in 10.0 mi SSW 5.8 mph - N/A   Clear
7:23 PM 37.4 °F 31.4 °F 35.6 °F 93% 29.98 in 10.0 mi SSW 8.1 mph - N/A   Partly Cloudy
7:36 PM 37.4 °F 32.1 °F 35.6 °F 93% 29.98 in 10.0 mi SSW 6.9 mph - N/A   Mostly Cloudy
7:53 PM 37.9 °F 32.7 °F 35.1 °F 89% 30.01 in 10.0 mi SSW 6.9 mph - N/A   Mostly Cloudy
8:15 PM 37.4 °F 32.8 °F 35.6 °F 93% 29.98 in 10.0 mi SSW 5.8 mph - N/A   Partly Cloudy
8:46 PM 37.4 °F 33.8 °F 35.6 °F 93% 29.98 in 10.0 mi South 4.6 mph - N/A   Mostly Cloudy
8:53 PM 37.9 °F 34.4 °F 35.1 °F 89% 30.00 in 10.0 mi South 4.6 mph - N/A   Mostly Cloudy
9:53 PM 37.9 °F 33.5 °F 36.0 °F 93% 29.99 in 10.0 mi SSW 5.8 mph - N/A   Overcast
10:53 PM 37.9 °F - 36.0 °F 93% 29.99 in 10.0 mi Calm Calm - N/A   Overcast
11:53 PM 37.9 °F 33.5 °F 36.0 °F 93% 29.96 in 8.0 mi South 5.8 mph - N/A   Overcast